Torna al catalogo

COSMOS 1275 DEB

LostPO
NORAD 39940·DEBRIS·🇷🇺 Russia

Lanciato Jun 4, 1981 da Plesetsk Cosmodrome

Loading…

Prossimi Passaggi (prossime 24 ore)

TLE

ObsoletoSource: Space-Track

Epoca: Aug 8, 2017, 13:55 UTC

1 39940U 81053NA  17220.57998663 -.00000060  00000-0 -87341-4 0  9992
2 39940  82.9881  76.5644 0073887   8.7986  22.3344 13.67364880587820

Traccia COSMOS 1275 DEB in tempo reale con AllMySat

Download on the App Store